Hourly Data Report for February 04, 2020

All times are specified in Local Standard Time (LST). Add 1 hour to adjust for Daylight Saving Time where and when it is observed.

OTTAWA INTL A
ONTARIO
Current Station Operator: NAVCAN

45°19'00.000" N
75°40'00.000" W
114.90 m
6106001
71628
YOW

Download Data

Hourly Data (February 2020)
Hourly Data Report for February 4, 2020
TIME Temp Definition
°C
Dew Point Definition
°C
Rel Hum Definition
%
Wind Dir Definition
10's deg

Wind Spd Definition
km/h
Visibility Definition
km
Stn Press Definition
kPa
Hmdx Definition


Wind Chill Definition


Weather Definition


00:00 -1.6 -3.6 86 10 6 24.1 99.71   -4 LegendNANA
01:00 -1.8 -3.9 85 10 12 24.1 99.64   -6 Mostly Cloudy
02:00 -2.4 -4.6 85 6 10 24.1 99.61   -6 LegendNANA
03:00 -3.4 -5.1 88 4 10 24.1 99.61   -7 LegendNANA
04:00 -5.2 -6.5 91 5 15 24.1 99.55   -11 Mostly Cloudy
05:00 -5.6 -7.0 90 5 13 24.1 99.52   -11 LegendNANA
06:00 -4.2 -5.4 91 5 13 24.1 99.47   -9 LegendNANA
07:00 -3.7 -5.0 90 2 13 24.1 99.54   -9 Mostly Cloudy
08:00 -3.0 -4.7 88 3 14 24.1 99.58   -8 LegendNANA
09:00 -2.7 -4.8 85 4 12 24.1 99.60   -7 LegendNANA
10:00 -1.3 -4.5 79 2 9 24.1 99.58   -5 Mostly Cloudy
11:00 -0.3 -4.4 74 35 8 24.1 99.54   -3 LegendNANA
12:00 0.3 -4.0 73 30 8 24.1 99.54     LegendNANA
13:00 0.9 -4.0 70 24 7 24.1 99.44     Mostly Cloudy
14:00 1.5 -3.5 70 27 13 24.1 99.46     LegendNANA
15:00 1.4 -3.6 69 28 21 24.1 99.51     LegendNANA
16:00 1.1 -3.9 69 28 21 24.1 99.54     Mostly Cloudy
17:00 1.0 -5.0 64 29 22 24.1 99.62     LegendNANA
18:00 -0.1 -5.8 65 29 12 24.1 99.69   -4 LegendNANA
19:00 -0.8 -6.7 65 28 11 24.1 99.74   -5 Mostly Cloudy
20:00 -1.4 -6.7 67 28 12 24.1 99.75   -5 LegendNANA
21:00 -2.2 -6.9 70 27 11 24.1 99.79   -6 LegendNANA
22:00 -2.9 -6.4 77 29 9 24.1 99.81   -6 Cloudy
23:00 -2.0 -6.5 71 28 13 24.1 99.85   -6 LegendNANA

Notes on Data Quality.

Legend

  • E = Estimated
  • M = Missing
  • NA = Not Available*
  • [empty] = Indicates an unobserved value
Date modified: